Home   Weather   New Salem   Past weeks

Flag for USA Past Weather in New Salem, North Dakota, USA — Yesterday and Last 2 Weeks

Now
5 °F

More clouds than sun.


Feels Like: -17 °F
Forecast: 0 / 3 °F
Wind: 23 mph from Northwest

Location: Bismarck Municipal Airport

Current Time: Dec 7, 2016 at 12:35:25 pm

Latest Report: Dec 7, 2016 at 11:52 am


Visibility: 10 mi

Pressure: 30.40 "Hg (27.85 "Hg at 664m altitude)

Humidity: 76%

Dew Point: -1 °F

Location of New SalemLocation

Past Weather in New Salem — Graph

°F

New Salem Temperature Yesterday

Maximum temperature yesterday: 14 °F (at 12:52 am)
Minimum temperature yesterday: 5 °F (at 11:52 pm)
Average temperature yesterday: 9 °F

High & Low Weather Summary for the Past Weeks

 TemperatureHumidityPressure
High51 °F (Nov 26, 2:52 pm)100% (Nov 24, 11:52 pm)30.40 "Hg (Nov 24, 11:52 pm)
Low4 °F (Dec 7, 1:52 am)38% (Nov 26, 2:52 pm)28.98 "Hg (Nov 28, 8:01 am)
Average27 °F86%29.90 "Hg
* Reported Nov 22 10:52 am — Dec 7 10:52 am, New Salem, Weather by CustomWeather, © 2016

Note: Actual official high and low records may vary slightly from our data, if they occured in-between our weather recording intervals... More about our weather records

Advertising

New Salem Weather History for the Previous 24 Hours

Scroll right to see more
 ConditionsComfort  
Time TempWeatherWind HumidityBarometerVisibility
10:52 am
Wed, Dec 7
5 °FOvercast.23 mph76%30.40 "Hg10 mi
9:52 am4 °FMostly cloudy.22 mph80%30.39 "Hg10 mi
8:52 am5 °FOvercast.21 mph76%30.36 "Hg10 mi
7:52 am6 °FOvercast.23 mph76%30.32 "Hg10 mi
7:02 am6 °FMostly cloudy.20 mph79%30.19 "Hg10 mi
6:52 am6 °FMostly cloudy.17 mph79%30.31 "Hg10 mi
5:52 am6 °FMostly cloudy.17 mph79%30.28 "Hg10 mi
4:52 am6 °FOvercast.24 mph76%30.27 "Hg10 mi
3:52 am4 °FPartly cloudy.20 mph80%30.25 "Hg10 mi
2:52 am4 °FClear.20 mph80%30.24 "Hg10 mi
1:52 am4 °FPassing clouds.21 mph80%30.22 "Hg10 mi
12:52 am5 °FPassing clouds.23 mph80%30.20 "Hg10 mi
11:52 pm
Tue, Dec 6
5 °FLight snow. Passing clouds.23 mph83%30.20 "Hg8 mi
10:52 pm6 °FLight snow. Overcast.20 mph91%30.19 "Hg10 mi
9:52 pm6 °FOvercast.22 mph83%30.17 "Hg9 mi
8:52 pm6 °FOvercast.21 mph83%30.15 "Hg8 mi
7:52 pm6 °FMostly cloudy.23 mph83%30.13 "Hg10 mi
6:52 pm6 °FPassing clouds.18 mph79%30.11 "Hg10 mi
5:52 pm7 °FOvercast.20 mph83%30.09 "Hg9 mi
4:52 pm8 °FMostly cloudy.16 mph83%30.06 "Hg7 mi
3:52 pm8 °FIce fog.23 mph91%30.04 "Hg2 mi
2:52 pm8 °FLight snow. Ice fog.29 mph91%30.01 "Hg1 mi
1:52 pm8 °FIce fog.25 mph83%29.99 "Hg2 mi
1:04 pm8 °FLight snow. Ice fog.25 mph91%29.88 "Hg1 mi
12:52 pm9 °FLight snow. Ice fog.28 mph88%29.98 "Hg2 mi
Weather by CustomWeather, © 2016

See weather overviewHow to use our weather pages